Location: 22
(39.7117°N, 89.5929°W)
Time: 08:33:27
(UTC-05:00)

Vanguard 1 Rocket - Pass Details

Date: 11 February 2023
Orbit: 652 x 4223 km, 34.3° (Epoch: 24 March)

Event Time Altitude Azimuth Distance (km) Brightness Sun altitude
Rises 11:36:57 0° 255° (WSW) 3,818 10.6 35.7°
Reaches altitude 10° 11:39:05 10° 252° (WSW) 3,117 10.3 35.8°
Maximum altitude 11:46:53 66° 172° (S) 1,922 10.3 36.0°
Drops below altitude 10° 12:02:32 10° 95° (E) 5,915 11.7 36.3°
Sets 12:08:20 0° 94° (E) 7,456 12.1 36.4°
